BV5AB-13 Weather Reports


time (UTC)temp
C
wind
direction
speed
KPH
gust
KPH
rain 1hr
cm
rain 24hr
cm
rain mn
cm
humidity
%
barometer
mb
20260508064703 31 10 11.3 24.1 0.00 0.00 0.00 59 1001.0
20260508063703 31 10 9.7 24.1 0.00 0.00 0.00 60 1001.1
20260508062703 31 0 8.0 24.1 0.00 0.00 0.00 63 1001.2
20260508061704 30 340 4.8 24.1 0.00 0.00 0.00 63 1001.3
20260508060704 30 330 9.7 20.9 0.00 0.00 0.00 62 1001.3
20260508055704 30 310 8.0 20.9 0.00 0.00 0.00 58 1001.4
20260508054705 30 290 8.0 20.9 0.00 0.00 0.00 58 1001.6
20260508053703 30 330 6.4 20.9 0.00 0.00 0.00 58 1001.8
20260508052703 31 320 6.4 20.9 0.00 0.00 0.00 54 1001.9
20260508051704 30 280 8.0 20.9 0.00 0.00 0.00 59 1002.1
20260508050704 31 320 6.4 19.3 0.00 0.00 0.00 57 1002.1
20260508045703 30 340 6.4 19.3 0.00 0.00 0.00 55 1002.1
20260508044703 31 340 3.2 19.3 0.00 0.00 0.00 54 1002.2
20260508043704 31 30 8.0 19.3 0.00 0.00 0.00 56 1002.3
20260508042704 30 240 3.2 19.3 0.00 0.00 0.00 60 1002.4
20260508041703 30 340 4.8 19.3 0.00 0.00 0.00 57 1002.7
20260508040703 30 330 6.4 16.1 0.00 0.00 0.00 60 1002.8
20260508035703 30 280 3.2 16.1 0.00 0.00 0.00 63 1003.1
20260508034704 29 350 4.8 16.1 0.00 0.00 0.00 60 1003.2
20260508033704 30 330 3.2 16.1 0.00 0.00 0.00 58 1003.3
20260508032704 29 0 4.8 16.1 0.00 0.00 0.00 60 1003.4
20260508031703 29 0 3.2 16.1 0.00 0.00 0.00 61 1003.4
20260508030703 29 320 4.8 20.9 0.00 0.00 0.00 59 1003.5
20260508025703 29 300 4.8 20.9 0.00 0.00 0.00 62 1003.5
20260508024703 28 310 6.4 20.9 0.00 0.00 0.00 63 1003.6
20260508023703 28 320 4.8 20.9 0.00 0.00 0.00 65 1003.7
20260508022705 28 350 4.8 20.9 0.00 0.00 0.00 65 1003.8
20260508021703 28 20 1.6 20.9 0.00 0.00 0.00 65 1003.8
20260508020703 28 0 6.4 12.9 0.00 0.00 0.00 69 1003.8
20260508015704 28 340 6.4 12.9 0.00 0.00 0.00 67 1004.0
20260508014704 27 330 8.0 12.9 0.00 0.00 0.00 67 1004.0
20260508013703 28 350 3.2 12.9 0.00 0.00 0.00 66 1004.0
20260508012704 27 330 1.6 12.9 0.00 0.00 0.00 68 1004.0
20260508011703 27 0 3.2 12.9 0.00 0.00 0.00 69 1003.9
20260508010703 27 330 6.4 11.3 0.00 0.00 0.00 68 1003.9
20260508005703 27 330 3.2 11.3 0.00 0.00 0.00 67 1003.8
20260508004703 26 330 3.2 11.3 0.00 0.00 0.00 69 1003.8
20260508003703 27 0 4.8 11.3 0.00 0.00 0.00 68 1003.7
20260508002703 26 20 4.8 11.3 0.00 0.00 0.00 69 1003.6
20260508001703 26 40 1.6 11.3 0.00 0.00 0.00 70 1003.4
20260508000703 26 10 4.8 8.0 0.00 0.00 0.00 72 1003.4
20260507235703 26 0 4.8 8.0 0.00 0.00 0.00 72 1003.5
20260507234703 26 350 3.2 8.0 0.00 0.00 0.00 74 1003.5
20260507233703 25 330 3.2 8.0 0.00 0.00 0.00 77 1003.5
20260507232703 25 350 3.2 8.0 0.00 0.00 0.00 77 1003.3
20260507231703 25 350 3.2 8.0 0.00 0.00 0.00 76 1003.2
20260507230703 25 0 0.0 4.8 0.00 0.00 0.00 78 1003.1
20260507225703 25 0 0.0 4.8 0.00 0.00 0.00 77 1003.0
20260507224703 25 70 1.6 4.8 0.00 0.00 0.00 78 1002.8
20260507223703 25 0 0.0 4.8 0.00 0.00 0.00 80 1002.8
20260507222703 25 0 0.0 4.8 0.00 0.00 0.00 83 1002.8
20260507221703 25 0 0.0 4.8 0.00 0.00 0.00 82 1002.8
20260507220703 24 150 1.6 6.4 0.00 0.00 0.00 84 1002.7
20260507215705 24 150 1.6 6.4 0.00 0.00 0.00 83 1002.6
20260507214704 24 0 0.0 6.4 0.00 0.00 0.00 82 1002.6
20260507213703 24 0 0.0 6.4 0.00 0.00 0.00 84 1002.5
20260507212704 24 0 0.0 6.4 0.00 0.00 0.00 84 1002.5
20260507211703 24 0 0.0 6.4 0.00 0.00 0.00 83 1002.5
20260507210703 24 0 0.0 8.0 0.00 0.00 0.00 84 1002.4
20260507205704 24 0 0.0 8.0 0.00 0.00 0.00 83 1002.3
20260507204704 25 10 1.6 8.0 0.00 0.00 0.00 82 1002.3
20260507203703 25 10 1.6 8.0 0.00 0.00 0.00 82 1002.2
20260507202705 25 0 0.0 8.0 0.00 0.00 0.00 82 1002.1
20260507201703 25 350 1.6 8.0 0.00 0.00 0.00 81 1002.2
20260507200704 25 20 3.2 3.2 0.00 0.00 0.00 82 1002.1
20260507195704 25 0 3.2 3.2 0.00 0.00 0.00 81 1002.1
20260507194703 25 30 3.2 3.2 0.00 0.00 0.00 82 1002.0
20260507193703 24 0 0.0 3.2 0.00 0.00 0.00 84 1001.9
20260507192704 24 0 0.0 3.2 0.00 0.00 0.00 84 1001.8
20260507191703 23 0 0.0 3.2 0.00 0.00 0.00 84 1001.7
20260507190703 23 0 0.0 6.4 0.00 0.00 0.00 84 1001.7
20260507185703 23 160 1.6 6.4 0.00 0.00 0.00 84 1001.6
20260507184703 23 150 1.6 6.4 0.00 0.00 0.00 84 1001.6
20260507183703 23 0 0.0 6.4 0.00 0.00 0.00 83 1001.6
20260507182703 24 0 0.0 6.4 0.00 0.00 0.00 84 1001.6
20260507181703 24 0 0.0 6.4 0.00 0.00 0.00 84 1001.7
20260507180703 24 140 1.6 3.2 0.00 0.00 0.00 82 1001.7
20260507175704 24 140 1.6 3.2 0.00 0.00 0.00 83 1001.8
20260507174704 24 140 1.6 3.2 0.00 0.00 0.00 83 1001.8
20260507173703 25 140 1.6 3.2 0.00 0.00 0.00 82 1001.8
20260507172704 25 0 0.0 3.2 0.00 0.00 0.00 82 1001.8
20260507171704 25 0 0.0 3.2 0.00 0.00 0.00 80 1001.9
20260507170705 25 0 0.0 4.8 0.00 0.00 0.00 80 1002.0
20260507165703 25 0 0.0 4.8 0.00 0.00 0.00 81 1002.1
20260507164704 25 0 0.0 4.8 0.00 0.00 0.00 79 1002.1
20260507163703 25 0 0.0 4.8 0.00 0.00 0.00 78 1002.1
20260507162704 25 0 0.0 4.8 0.00 0.00 0.00 79 1002.1
20260507161703 25 0 0.0 4.8 0.00 0.00 0.00 80 1002.2
20260507160703 25 0 0.0 8.0 0.00 0.00 0.00 80 1002.4
20260507155703 25 0 0.0 8.0 0.00 0.00 0.00 81 1002.4
20260507154703 25 0 0.0 8.0 0.00 0.00 0.00 80 1002.5
20260507153703 25 0 0.0 8.0 0.00 0.00 0.00 80 1002.5
20260507152704 25 0 0.0 8.0 0.00 0.00 0.00 78 1002.6
20260507151703 25 180 3.2 8.0 0.00 0.00 0.00 76 1002.7
20260507150704 26 210 3.2 8.0 0.00 0.00 0.00 75 1002.7
20260507145705 26 230 1.6 8.0 0.00 0.00 0.00 76 1002.7
20260507144704 25 220 1.6 8.0 0.00 0.00 0.00 79 1002.7
20260507143704 25 180 1.6 8.0 0.00 0.00 0.00 80 1002.7
20260507142705 25 160 1.6 8.0 0.00 0.00 0.00 78 1002.5
20260507141704 25 170 1.6 8.0 0.00 0.00 0.00 79 1002.5
20260507140703 25 190 1.6 12.9 0.00 0.00 0.00 78 1002.5
20260507135704 25 210 1.6 12.9 0.00 0.00 0.00 78 1002.4
20260507134703 26 200 1.6 12.9 0.00 0.00 0.00 77 1002.4
20260507133703 26 170 1.6 12.9 0.00 0.00 0.00 77 1002.4
20260507132704 26 160 0.0 12.9 0.00 0.00 0.00 77 1002.3
20260507131703 25 160 1.6 12.9 0.00 0.00 0.00 78 1002.2
20260507130703 26 190 1.6 9.7 0.00 0.00 0.00 76 1002.2
20260507125703 26 200 3.2 9.7 0.00 0.00 0.00 75 1002.2
20260507124704 26 200 4.8 9.7 0.00 0.00 0.00 75 1002.2
20260507123703 26 180 3.2 9.7 0.00 0.00 0.00 76 1002.1
20260507122705 26 180 1.6 9.7 0.00 0.00 0.00 74 1002.2
20260507121704 26 130 1.6 9.7 0.00 0.00 0.00 71 1002.0
20260507120703 26 0 0.0 9.7 0.00 0.00 0.00 68 1002.0
20260507115703 26 0 0.0 9.7 0.00 0.00 0.00 71 1002.0
20260507114703 26 0 0.0 9.7 0.00 0.00 0.00 70 1001.8
20260507113703 26 0 0.0 9.7 0.00 0.00 0.00 69 1001.7
20260507112707 27 310 1.6 9.7 0.00 0.00 0.00 65 1001.7
20260507111703 27 310 3.2 9.7 0.00 0.00 0.00 66 1001.6
20260507110703 27 280 1.6 14.5 0.00 0.00 0.00 67 1001.5
20260507105704 27 300 1.6 14.5 0.00 0.00 0.00 68 1001.4
20260507104703 27 310 3.2 14.5 0.00 0.00 0.00 67 1001.2
20260507103704 27 330 1.6 14.5 0.00 0.00 0.00 68 1001.2
20260507102704 27 330 1.6 14.5 0.00 0.00 0.00 69 1001.1
20260507101703 27 310 3.2 14.5 0.00 0.00 0.00 68 1000.9
20260507100703 27 0 3.2 19.3 0.00 0.00 0.00 67 1000.8
20260507095704 27 10 4.8 19.3 0.00 0.00 0.00 67 1000.8
20260507094703 27 340 9.7 19.3 0.00 0.00 0.00 70 1000.8
20260507093704 27 330 4.8 19.3 0.00 0.00 0.00 70 1000.8
20260507092704 27 330 6.4 19.3 0.00 0.00 0.00 68 1000.7
20260507091704 27 350 9.7 19.3 0.00 0.00 0.00 68 1000.6
20260507090703 28 350 8.0 22.5 0.00 0.00 0.00 66 1000.5
20260507085704 28 310 4.8 22.5 0.00 0.00 0.00 64 1000.4
20260507084704 28 320 4.8 22.5 0.00 0.00 0.00 63 1000.3
20260507083703 29 320 6.4 22.5 0.00 0.00 0.00 60 1000.2
20260507082703 29 270 3.2 22.5 0.00 0.00 0.00 62 1000.2
20260507081705 30 320 6.4 22.5 0.00 0.00 0.00 58 1000.1
20260507080703 30 270 6.4 24.1 0.00 0.00 0.00 56 1000.0
20260507075703 30 250 8.0 24.1 0.00 0.00 0.00 56 1000.0
20260507074703 30 260 9.7 24.1 0.00 0.00 0.00 56 1000.1
20260507073703 31 280 6.4 24.1 0.00 0.00 0.00 55 1000.1
20260507072703 30 250 6.4 24.1 0.00 0.00 0.00 57 1000.1
20260507071703 30 280 8.0 24.1 0.00 0.00 0.00 56 1000.0
20260507070703 30 260 8.0 19.3 0.00 0.00 0.00 56 1000.1
20260507065704 31 230 9.7 19.3 0.00 0.00 0.00 57 1000.1